Regional Weather Roundup
Issued by NWS

Home | Current Version | Previous Version | Text Only | Print | Product List | Glossary Off
Versions: 1 2 3 4 5 6 7 8 9 10 11 12 13 14 15 16 17 18 19 20 21 22 23 24 25 26 27 28 29 30 31 32 33 34 35 36 37 38 39 40 41 42 43 44 45 46 47 48 49 50

000
ASUS43 KLOT 230004
RWRIL

ILLINOIS REGIONAL WEATHER ROUNDUP
NATIONAL WEATHER SERVICE CHICAGO/ROMEOVILLE IL
700 PM CDT SUN OCT 22 2017

NOTE: "FAIR" INDICATES FEW OR NO CLOUDS BELOW 12,000 FEET WITH NO
SIGNIFICANT WEATHER AND/OR OBSTRUCTIONS TO VISIBILITY.

* THESE STATIONS ARE NOT UNDER NWS QUALITY CONTROL. THEY ALSO MAY NOT
  REPORT WEATHER SUCH AS PRECIPITATION OR FOG.

ILZ001-002-007-009-015-016-024-230100-
NORTHWEST ILLINOIS

CITY           SKY/WX    TMP DP  RH WIND       PRES   REMARKS
MOLINE         CLOUDY    52  49  89 CALM      30.07R
6HR MIN TEMP:  52; 6HR MAX TEMP:  54; 6HR PCP:  0.04;

STERLING*      LGT RAIN  51  49  92 N3          N/A
SAVANNA*       CLOUDY    51  50  95 CALM      30.08R
$$

ILZ003-004-008-010-011-017-018-230100-
NORTH CENTRAL ILLINOIS

CITY           SKY/WX    TMP DP  RH WIND       PRES   REMARKS
ROCKFORD       LGT RAIN  51  48  89 CALM      30.08R
6HR MIN TEMP:  51; 6HR MAX TEMP:  52; 6HR PCP:  0.06;

FREEPORT*      CLOUDY    49  48  97 CALM      30.09R
ROCHELLE*      DRIZZLE   50  49  97 CALM      30.06F
DE KALB*       LGT RAIN  50  49  97 N6        30.06S
PERU*          LGT RAIN  51  48  90 N9        30.06S
$$

ILZ005-006-012>014-019>023-230100-
NORTHEAST ILLINOIS

CITY           SKY/WX    TMP DP  RH WIND       PRES   REMARKS
CHICAGO-OHARE  LGT RAIN  53  50  89 N7        30.04S
6HR MIN TEMP:  52; 6HR MAX TEMP:  70; 6HR PCP:  0.17;

CHICAGO-MIDWAY DRIZZLE   53  52  96 N10       30.05R FOG
6HR MIN TEMP:  52; 6HR MAX TEMP:  72; 6HR PCP:  0.13;

AURORA         CLOUDY    52  50  93 N5        30.06R
6HR MIN TEMP:  52; 6HR MAX TEMP:  65; 6HR PCP:  0.12;

LANSING*       DRIZZLE   52  52 100 N8        30.05R
JOLIET*        CLOUDY    53  52  97 N8        30.05S
WAUKEGAN       LGT RAIN  51  50  96 VRB5      30.04R FOG
6HR MIN TEMP:  50; 6HR MAX TEMP:  67;

DUPAGE AIRPORT CLOUDY    51  50  96 N9        30.04S
6HR MIN TEMP:  50; 6HR MAX TEMP:  66; 6HR PCP:  0.11;

KANKAKEE*      CLOUDY    53  51  94 N13       30.04S
WHEELING       CLOUDY    53  52  96 N5        30.06R
6HR MIN TEMP:  52; 6HR MAX TEMP:  70; 6HR PCP:  0.23;

MORRIS*        CLOUDY    51  50  93 N3        30.03F
ROMEOVILLE*    CLOUDY    51  50  96 NE10      30.04F
NORTHERLY ISL    N/A     53  50  89 NW17        N/A
$$

LMZ740>746-230100-
SOUTHERN LAKE MICHIGAN

STATION/POSITION SKY/WX   TEMP    WIND        PRES    VSBY  WAVE
                          AIR SEA DIR/SP/G                  HT/PER
                          (F)     (DEG/KT/KT) (MB)    (MI)  (FT/S)
SOUTHERN BUOY              54 59  360/ 19/ 23 1015.9          5/ 6
WILMETTE HARBOR            53 57  350/ 14/ 19   N/A           5/ 5
HARRISON CRIB              53     350/ 18/ 20   N/A
BURNHAM HARBOR             53     330/ 13/ 16   N/A
CALUMET HARBOR             53     340/ 17/ 23 1016.7R
BURNS HARBOR               54     360/ 15/ 19 1017.6R
MICHIGAN CITY              54     330/ 20/ 21   N/A
MICHIGAN CITY 6N           54 58  350/ 17/ 21   N/A           5/ 5
ST. JOSEPH                 58 60   20/ 14/ 17 1016.5R         3/ 4
$$

ILZ025>027-034>036-040-047-049-050-058-095>099-230100-
WEST-CENTRAL ILLINOIS

CITY           SKY/WX    TMP DP  RH WIND       PRES   REMARKS
QUINCY         CLOUDY    52  50  93 NW7       30.07S
MACOMB*        CLOUDY    52  50  95 NW5       30.09R
JACKSONVILLE*  DRIZZLE   51  49  92 NW8       30.06R
PITTSFIELD*    DRIZZLE   53  51  94 NW5       30.08R
$$

ILZ028>032-037-038-041>044-048-051>054-059>061-230100-
CENTRAL ILLINOIS

CITY           SKY/WX    TMP DP  RH WIND       PRES   REMARKS
PONTIAC        CLOUDY    53  52  98 N9        30.04S
BLOOMINGTON    LGT RAIN  51  50  96 N13       30.04R
DECATUR        LGT RAIN  53  51  93 N10       30.03R
PEORIA         CLOUDY    52  51  97 N6        30.05S
6HR MIN TEMP:  52; 6HR MAX TEMP:  54; 6HR PCP:  0.03;

LACON*         DRIZZLE   51  50  96 N6        30.05S
LINCOLN*       RAIN      53  52  95 N7        30.04S
SPRINGFIELD    CLOUDY    54  51  90 N8        30.05S
6HR MIN TEMP:  54; 6HR MAX TEMP:  58; 6HR PCP:  0.02;

TAYLORVILLE    RAIN      52  51  97 N8        30.04R
6HR MIN TEMP:  52; 6HR MAX TEMP:  64; 6HR PCP:  0.13;

$$

ILZ033-039-045-046-055>057-062-063-230100-
EAST-CENTRAL ILLINOIS

CITY           SKY/WX    TMP DP  RH WIND       PRES   REMARKS
CHAMPAIGN      LGT RAIN  54  51  90 N14G22    30.01S FOG
DANVILLE*      CLOUDY    54  54  99 N5        29.99R
RANTOUL*       DRIZZLE   54  53  97 N15       30.02R
MATTOON        CLOUDY    53  53 100 N10       30.00F
PARIS*         CLOUDY    56  56  99 NW12      30.00R
$$

ILZ079-100>102-230100-
SOUTHWEST ILLINOIS

CITY           SKY/WX    TMP DP  RH WIND       PRES   REMARKS
ALTON          CLOUDY    54  52  94 NW9       30.06R
CAHOKIA*       LGT RAIN  56  50  80 N10       30.04R
SPARTA*        DRIZZLE   53  52  98 N8        30.03R
$$

ILZ064>066-069>071-074>076-080>082-084>086-088>090-092>094-230100-
SOUTH-CENTRAL ILLINOIS

CITY           SKY/WX    TMP DP  RH WIND       PRES   REMARKS
CARBONDALE     LGT RAIN  56  56 100 NW7       29.99S
6HR MIN TEMP:  56; 6HR MAX TEMP:  74; 6HR PCP:  0.49;

CAIRO*         HVY RAIN  57  56  97 N13G18    29.95R
EFFINGHAM*     HVY RAIN  55  55 100 NW8       30.02R
MARION         RAIN      57  57 100 N14       29.98S
MT. VERNON     RAIN      56  55  97 N8        29.98S
CENTRALIA*     LGT RAIN  55  55  99 N12       29.98F
SALEM*         LGT RAIN  56  54  93 N12       29.99F
METROPOLIS*    LGT RAIN  67  66  97 CALM      29.94S
$$

ILZ067-068-072-073-078-083-087-091-230100-
SOUTHEAST ILLINOIS

CITY           SKY/WX    TMP DP  RH WIND       PRES   REMARKS
LAWRENCEVILLE  CLOUDY    73  60  63 SE9       29.95F
FLORA*         RAIN      58  57  96 N12       29.94F
FAIRFIELD*     RAIN      59  59 100 NW3       29.96S
HARRISBURG*    HVY RAIN  60  60  99 NW10      29.96R
ROBINSON*      CLOUDY    72  60  66 SE7       29.96S
CARMI*         RAIN      67  64  89 W12       29.94S
$$

ABBREVIATIONS USED IN REMARKS
   TC - TEMPERATURE IN CELSIUS
  WCI - WIND CHILL INDEX
   HX - HEAT INDEX
  VSB - VISIBILITY
$$




USA.gov is the U.S. government's official web portal to all federal, state and local government web resources and services.